Mills, WY

2:57 AM MST on February 12, 2016 (GMT -0700)
Natrona County International

Weather History for KCPR - March, 2013

Change the Weather History Date:

Saturday, March 2, 2013

  Actual Average Record
Temperature  
Mean Temperature 40 °F 31 °F  
Max Temperature 48 °F 43 °F 64 °F (2009)
Min Temperature 32 °F 19 °F -16 °F (1960)
Degree Days  
Heating Degree Days 25 34  
Month to date heating degree days 61 68  
Since 1 July heating degree days 5111 5516  
Cooling Degree Days 0 0  
Month to date cooling degree days 0 0  
Year to date cooling degree days 0 0  
Moisture  
Dew Point 25 °F    
Average Humidity 60    
Maximum Humidity 78    
Minimum Humidity 42    
Precipitation  
Precipitation 0.00 in 0.02 in 0.48 in (2015)
Month to date precipitation 0.00 0.04  
Year to date precipitation 0.77 1.12  
Snow  
Snow 0.00 in 0.30 in - ()
Month to date snowfall 0.0 0.6  
Since 1 July snowfall 32.7 50.0  
Snow Depth 0.00 in    
Sea Level Pressure  
Sea Level Pressure 30.18 in    
Wind  
Wind Speed 18 mph (SW)    
Max Wind Speed 31 mph    
Max Gust Speed 39 mph    
Visibility 10 miles    
Events      
T = Trace of Precipitation, MM = Missing Value Source: NWS Daily Summary

Daily Weather History Graph

Daily Weather History Graph

Search for Another Location

Airport or City:

Trip Planner

Search our weather history database for the weather conditions in past years. The results will help you decide how hot, cold, wet, or windy it might be!

Date:

Astronomy

Mar. 02, 2013 Rise Set
Actual Time 6:39 AM MST 5:56 PM MST
Civil Twilight 6:11 AM MST 6:25 PM MST
Nautical Twilight 5:38 AM MST 6:58 PM MST
Astronomical Twilight 5:05 AM MST 7:31 PM MST
Moon 11:49 PM MST (3/2) 9:00 AM MST (3/2)
Length of Visible Light 12h 14m
Length of Day
11h 17m
Waning Gibbous, 73% of the Moon is Illuminated
Mar 2
Waning Gibbous
Mar 4
Last Quarter
Mar 11
New
Mar 19
First Quarter
Mar 27
Full

Hourly Weather History & Observations

Time (MST) Temp. Windchill Dew Point Humidity Pressure Visibility Wind Dir Wind Speed Gust Speed Precip Events Conditions
12:53 AM 33.1 °F 25.5 °F 26.1 °F 75% 30.32 in 10.0 mi WSW 9.2 mph - N/A   Clear
1:53 AM 33.8 °F 24.8 °F 24.8 °F 70% 30.28 in 10.0 mi SW 12.7 mph - N/A   Clear
2:53 AM 33.1 °F 23.0 °F 24.1 °F 70% 30.31 in 10.0 mi SW 15.0 mph - N/A   Clear
3:53 AM 34.0 °F 27.2 °F 23.0 °F 64% 30.30 in 10.0 mi WNW 8.1 mph - N/A   Clear
4:53 AM 33.8 °F 25.3 °F 23.0 °F 65% 30.28 in 10.0 mi SW 11.5 mph - N/A   Clear
5:53 AM 33.1 °F 24.4 °F 23.0 °F 66% 30.31 in 10.0 mi SW 11.5 mph - N/A   Clear
6:53 AM 33.1 °F 21.9 °F 23.0 °F 66% 30.31 in 10.0 mi SW 18.4 mph - N/A   Clear
7:53 AM 34.0 °F 22.7 °F 23.0 °F 64% 30.31 in 10.0 mi SSW 19.6 mph 27.6 mph N/A   Clear
8:53 AM 37.0 °F 24.9 °F 24.1 °F 59% 30.30 in 10.0 mi SSW 27.6 mph 34.5 mph N/A   Clear
9:53 AM 39.0 °F 27.6 °F 25.0 °F 57% 30.29 in 10.0 mi SSW 27.6 mph 35.7 mph N/A   Clear
10:53 AM 42.1 °F 31.7 °F 25.0 °F 51% 30.27 in 10.0 mi SW 27.6 mph 35.7 mph N/A   Clear
11:53 AM 44.1 °F 34.4 °F 26.1 °F 49% 30.25 in 10.0 mi SW 27.6 mph 34.5 mph N/A   Clear
12:53 PM 46.0 °F 36.7 °F 26.1 °F 46% 30.20 in 10.0 mi SW 29.9 mph 39.1 mph N/A   Clear
1:53 PM 48.0 °F - 27.0 °F 44% 30.17 in 10.0 mi SW 20.7 mph 29.9 mph N/A   Clear
2:53 PM 46.9 °F - 27.0 °F 46% 30.16 in 10.0 mi SW 18.4 mph 28.8 mph N/A   Clear
3:53 PM 46.9 °F - 28.0 °F 48% 30.14 in 10.0 mi SW 18.4 mph - N/A   Clear
4:53 PM 46.9 °F - 28.0 °F 48% 30.13 in 10.0 mi SW 13.8 mph - N/A   Clear
5:53 PM 42.8 °F 37.5 °F 28.4 °F 57% 30.12 in 10.0 mi SW 9.2 mph - N/A   Clear
6:53 PM 42.1 °F 36.1 °F 28.0 °F 58% 30.11 in 10.0 mi SW 10.4 mph - N/A   Clear
7:53 PM 42.1 °F 35.2 °F 28.0 °F 58% 30.09 in 10.0 mi SW 12.7 mph - N/A   Clear
8:53 PM 41.0 °F 31.6 °F 27.0 °F 57% 30.04 in 10.0 mi SW 20.7 mph - N/A   Clear
9:53 PM 41.0 °F 34.3 °F 25.0 °F 53% 30.00 in 10.0 mi SW 11.5 mph - N/A   Clear
10:53 PM 41.0 °F 32.8 °F 25.0 °F 53% 29.94 in 10.0 mi SW 16.1 mph - N/A   Clear
11:53 PM 44.1 °F 34.6 °F 24.1 °F 45% 29.87 in 10.0 mi SSW 26.5 mph 35.7 mph N/A   Clear